| time (UTC) | temp C | wind direction | speed KPH | gust KPH | rain 1hr cm | rain 24hr cm | rain mn cm | humidity % | barometer mb |
| 20260504215026 | 25 | 274 | 3.2 | 9.7 | 0.00 | 0.00 | 0.00 | 36 | 1034.4 |
| 20260504214522 | 26 | 319 | 3.2 | 8.0 | 0.00 | 0.00 | 0.00 | 32 | 1034.2 |
| 20260504214018 | 26 | 278 | 8.0 | 8.0 | 0.00 | 0.00 | 0.00 | 36 | 1034.0 |
| 20260504213515 | 27 | 255 | 4.8 | 4.8 | 0.00 | 0.00 | 0.00 | 31 | 1034.2 |
| 20260504213012 | 25 | 294 | 4.8 | 8.0 | 0.00 | 0.00 | 0.00 | 36 | 1034.3 |
| 20260504212508 | 26 | 292 | 11.3 | 16.1 | 0.00 | 0.00 | 0.00 | 34 | 1034.1 |
| 20260504212006 | 25 | 278 | 0.0 | 9.7 | 0.00 | 0.00 | 0.00 | 32 | 1034.2 |
| 20260504211502 | 25 | 270 | 4.8 | 14.5 | 0.00 | 0.00 | 0.00 | 35 | 1034.2 |
| 20260504211000 | 25 | 282 | 14.5 | 17.7 | 0.00 | 0.00 | 0.00 | 30 | 1034.5 |
| 20260504210456 | 25 | 253 | 3.2 | 12.9 | 0.00 | 0.00 | 0.00 | 31 | 1034.4 |
| 20260504205953 | 26 | 236 | 3.2 | 8.0 | 0.00 | 0.00 | 0.00 | 37 | 1034.1 |
| 20260504205450 | 25 | 286 | 3.2 | 9.7 | 0.00 | 0.00 | 0.00 | 34 | 1034.5 |
| 20260504204949 | 25 | 254 | 0.0 | 14.5 | 0.00 | 0.00 | 0.00 | 35 | 1034.6 |
| 20260504204447 | 25 | 270 | 11.3 | 12.9 | 0.00 | 0.00 | 0.00 | 32 | 1034.6 |
| 20260504203945 | 25 | 277 | 4.8 | 16.1 | 0.00 | 0.00 | 0.00 | 36 | 1034.9 |
| 20260504203443 | 25 | 301 | 9.7 | 17.7 | 0.00 | 0.00 | 0.00 | 34 | 1035.0 |
| 20260504202939 | 25 | 270 | 3.2 | 6.4 | 0.00 | 0.00 | 0.00 | 37 | 1034.7 |
| 20260504202435 | 25 | 291 | 4.8 | 8.0 | 0.00 | 0.00 | 0.00 | 36 | 1034.6 |
| 20260504201932 | 24 | 295 | 3.2 | 8.0 | 0.00 | 0.00 | 0.00 | 35 | 1034.9 |
| 20260504201430 | 23 | 270 | 1.6 | 11.3 | 0.00 | 0.00 | 0.00 | 38 | 1035.3 |
| 20260504200927 | 25 | 285 | 6.4 | 9.7 | 0.00 | 0.00 | 0.00 | 38 | 1035.2 |
| 20260504200424 | 22 | 266 | 4.8 | 6.4 | 0.00 | 0.00 | 0.00 | 41 | 1035.3 |
| 20260504195920 | 23 | 274 | 4.8 | 11.3 | 0.00 | 0.00 | 0.00 | 42 | 1035.3 |
| 20260504195416 | 23 | 264 | 4.8 | 11.3 | 0.00 | 0.00 | 0.00 | 35 | 1035.5 |
| 20260504194913 | 22 | 270 | 4.8 | 11.3 | 0.00 | 0.00 | 0.00 | 40 | 1035.4 |
| 20260504194409 | 23 | 215 | 8.0 | 14.5 | 0.00 | 0.00 | 0.00 | 34 | 1035.6 |
| 20260504193905 | 23 | 270 | 6.4 | 8.0 | 0.00 | 0.00 | 0.00 | 37 | 1035.5 |
| 20260504193403 | 22 | 285 | 17.7 | 19.3 | 0.00 | 0.00 | 0.00 | 37 | 1035.5 |
| 20260504192901 | 23 | 266 | 0.0 | 12.9 | 0.00 | 0.00 | 0.00 | 39 | 1035.9 |
| 20260504192358 | 23 | 226 | 9.7 | 9.7 | 0.00 | 0.00 | 0.00 | 38 | 1035.8 |
| 20260504191856 | 23 | 286 | 4.8 | 9.7 | 0.00 | 0.00 | 0.00 | 38 | 1035.9 |
| 20260504191354 | 23 | 259 | 9.7 | 17.7 | 0.00 | 0.00 | 0.00 | 37 | 1036.0 |
| 20260504190849 | 23 | 21 | 0.0 | 9.7 | 0.00 | 0.00 | 0.00 | 38 | 1036.0 |
| 20260504190345 | 22 | 274 | 4.8 | 8.0 | 0.00 | 0.00 | 0.00 | 41 | 1036.0 |
| 20260504185842 | 23 | 249 | 4.8 | 12.9 | 0.00 | 0.00 | 0.00 | 37 | 1036.0 |
| 20260504185339 | 23 | 216 | 4.8 | 11.3 | 0.00 | 0.00 | 0.00 | 38 | 1036.1 |
| 20260504184835 | 22 | 272 | 8.0 | 8.0 | 0.00 | 0.00 | 0.00 | 39 | 1036.2 |
| 20260504184331 | 22 | 286 | 3.2 | 16.1 | 0.00 | 0.00 | 0.00 | 42 | 1036.1 |
| 20260504183827 | 22 | 263 | 4.8 | 12.9 | 0.00 | 0.00 | 0.00 | 40 | 1036.2 |
| 20260504183325 | 23 | 277 | 14.5 | 30.6 | 0.00 | 0.00 | 0.00 | 38 | 1036.2 |
| 20260504182822 | 23 | 234 | 8.0 | 14.5 | 0.00 | 0.00 | 0.00 | 40 | 1036.4 |
| 20260504182320 | 23 | 270 | 4.8 | 9.7 | 0.00 | 0.00 | 0.00 | 40 | 1036.2 |
| 20260504181816 | 23 | 282 | 3.2 | 4.8 | 0.00 | 0.00 | 0.00 | 39 | 1036.4 |
| 20260504181314 | 22 | 286 | 3.2 | 9.7 | 0.00 | 0.00 | 0.00 | 42 | 1036.3 |
| 20260504180813 | 22 | 280 | 9.7 | 11.3 | 0.00 | 0.00 | 0.00 | 39 | 1036.3 |
| 20260504180311 | 24 | 251 | 4.8 | 9.7 | 0.00 | 0.00 | 0.00 | 43 | 1036.3 |
| 20260504175809 | 23 | 279 | 4.8 | 11.3 | 0.00 | 0.00 | 0.00 | 41 | 1036.3 |
| 20260504175305 | 22 | 280 | 6.4 | 9.7 | 0.00 | 0.00 | 0.00 | 42 | 1036.7 |
| 20260504174804 | 22 | 290 | 8.0 | 14.5 | 0.00 | 0.00 | 0.00 | 42 | 1036.5 |
| 20260504174301 | 23 | 247 | 4.8 | 11.3 | 0.00 | 0.00 | 0.00 | 40 | 1036.5 |
| 20260504173757 | 23 | 270 | 3.2 | 8.0 | 0.00 | 0.00 | 0.00 | 49 | 1036.5 |
| 20260504173254 | 22 | 299 | 4.8 | 24.1 | 0.00 | 0.00 | 0.00 | 42 | 1036.8 |
| 20260504172751 | 22 | 312 | 3.2 | 22.5 | 0.00 | 0.00 | 0.00 | 43 | 1036.6 |
| 20260504172247 | 22 | 285 | 4.8 | 16.1 | 0.00 | 0.00 | 0.00 | 43 | 1036.9 |
| 20260504171743 | 22 | 228 | 3.2 | 8.0 | 0.00 | 0.00 | 0.00 | 40 | 1036.9 |
| 20260504171241 | 21 | 168 | 1.6 | 24.1 | 0.00 | 0.00 | 0.00 | 45 | 1036.9 |
| 20260504170738 | 22 | 253 | 12.9 | 12.9 | 0.00 | 0.00 | 0.00 | 43 | 1037.0 |
| 20260504170235 | 22 | 237 | 8.0 | 16.1 | 0.00 | 0.00 | 0.00 | 46 | 1036.9 |
| 20260504160153 | 20 | 286 | 3.2 | 19.3 | 0.00 | 0.00 | 0.00 | 47 | 1037.4 |
| 20260504151121 | 20 | 159 | 3.2 | 12.9 | 0.00 | 0.00 | 0.00 | 45 | 1038.0 |
| 20260504150618 | 18 | 296 | 4.8 | 16.1 | 0.00 | 0.00 | 0.00 | 48 | 1038.0 |
| 20260504150115 | 18 | 270 | 3.2 | 11.3 | 0.00 | 0.00 | 0.00 | 47 | 1037.8 |
| 20260504141044 | 16 | 147 | 8.0 | 9.7 | 0.00 | 0.00 | 0.00 | 49 | 1038.6 |
| 20260504140540 | 15 | 291 | 1.6 | 11.3 | 0.00 | 0.00 | 0.00 | 52 | 1038.5 |
| 20260504130505 | 15 | 315 | 0.0 | 6.4 | 0.00 | 0.00 | 0.00 | 52 | 1039.2 |
| 20260504110346 | 7 | 275 | 3.2 | 3.2 | 0.00 | 0.00 | 0.00 | 77 | 1039.5 |
| 20260504100303 | 4 | 235 | 4.8 | 6.4 | 0.00 | 0.00 | 0.00 | 87 | 1039.5 |
| 20260504081657 | 5 | 286 | 0.0 | 3.2 | 0.00 | 0.00 | 0.00 | 81 | 1039.9 |
| 20260504081153 | 6 | 239 | 3.2 | 4.8 | 0.00 | 0.00 | 0.00 | 80 | 1039.9 |
| 20260504080649 | 6 | 270 | 3.2 | 6.4 | 0.00 | 0.00 | 0.00 | 80 | 1040.0 |
| 20260504080146 | 6 | 198 | 3.2 | 4.8 | 0.00 | 0.00 | 0.00 | 80 | 1039.8 |
| 20260504070114 | 6 | 245 | 3.2 | 3.2 | 0.00 | 0.00 | 0.00 | 79 | 1039.5 |
| 20260504050503 | 5 | 276 | 1.6 | 6.4 | 0.00 | 0.00 | 0.00 | 86 | 1040.0 |
| 20260504045959 | 5 | 249 | 0.0 | 4.8 | 0.00 | 0.00 | 0.00 | 86 | 1040.1 |
| 20260504045455 | 5 | 270 | 1.6 | 3.2 | 0.00 | 0.00 | 0.00 | 86 | 1040.4 |
| 20260504044951 | 5 | 270 | 1.6 | 3.2 | 0.00 | 0.00 | 0.00 | 85 | 1040.1 |
| 20260504044449 | 5 | 203 | 1.6 | 3.2 | 0.00 | 0.00 | 0.00 | 85 | 1040.2 |
| 20260504043946 | 5 | 265 | 3.2 | 3.2 | 0.00 | 0.00 | 0.00 | 84 | 1040.1 |
| 20260504043443 | 6 | 238 | 4.8 | 4.8 | 0.00 | 0.00 | 0.00 | 84 | 1040.3 |
| 20260504042940 | 6 | 257 | 0.0 | 4.8 | 0.00 | 0.00 | 0.00 | 83 | 1040.2 |
| 20260504042437 | 6 | 228 | 3.2 | 3.2 | 0.00 | 0.00 | 0.00 | 84 | 1040.0 |
| 20260504041933 | 6 | 285 | 1.6 | 3.2 | 0.00 | 0.00 | 0.00 | 81 | 1040.2 |
| 20260504041430 | 6 | 283 | 1.6 | 3.2 | 0.00 | 0.00 | 0.00 | 81 | 1040.1 |
| 20260504040925 | 7 | 236 | 0.0 | 3.2 | 0.00 | 0.00 | 0.00 | 80 | 1040.2 |
| 20260504040424 | 7 | 291 | 1.6 | 3.2 | 0.00 | 0.00 | 0.00 | 81 | 1040.2 |
| 20260504035919 | 7 | 264 | 0.0 | 4.8 | 0.00 | 0.00 | 0.00 | 80 | 1040.3 |
| 20260504035417 | 7 | 277 | 0.0 | 4.8 | 0.00 | 0.00 | 0.00 | 81 | 1040.2 |
| 20260504034908 | 7 | 263 | 1.6 | 3.2 | 0.00 | 0.00 | 0.00 | 82 | 1040.3 |
| 20260504034406 | 7 | 243 | 1.6 | 3.2 | 0.00 | 0.00 | 0.00 | 82 | 1040.3 |
| 20260504033903 | 7 | 254 | 3.2 | 3.2 | 0.00 | 0.00 | 0.00 | 81 | 1040.1 |
| 20260504033401 | 8 | 257 | 3.2 | 3.2 | 0.00 | 0.00 | 0.00 | 80 | 1040.2 |
| 20260504032857 | 8 | 277 | 1.6 | 3.2 | 0.00 | 0.00 | 0.00 | 77 | 1040.3 |
| 20260504032354 | 8 | 253 | 3.2 | 4.8 | 0.00 | 0.00 | 0.00 | 75 | 1040.2 |
| 20260504031850 | 8 | 263 | 1.6 | 3.2 | 0.00 | 0.00 | 0.00 | 79 | 1040.3 |
| 20260504031347 | 8 | 262 | 1.6 | 3.2 | 0.00 | 0.00 | 0.00 | 78 | 1040.4 |
| 20260504030844 | 8 | 270 | 3.2 | 4.8 | 0.00 | 0.00 | 0.00 | 78 | 1040.4 |
| 20260504030342 | 8 | 257 | 1.6 | 3.2 | 0.00 | 0.00 | 0.00 | 79 | 1040.4 |
| 20260504025837 | 8 | 250 | 3.2 | 3.2 | 0.00 | 0.00 | 0.00 | 78 | 1040.4 |
| 20260504025335 | 8 | 243 | 1.6 | 4.8 | 0.00 | 0.00 | 0.00 | 76 | 1040.5 |
| 20260504024831 | 8 | 270 | 3.2 | 3.2 | 0.00 | 0.00 | 0.00 | 75 | 1040.5 |
| 20260504024328 | 8 | 240 | 3.2 | 3.2 | 0.00 | 0.00 | 0.00 | 74 | 1040.5 |
| 20260504023824 | 9 | 254 | 3.2 | 3.2 | 0.00 | 0.00 | 0.00 | 73 | 1040.5 |
| 20260504023321 | 9 | 275 | 3.2 | 3.2 | 0.00 | 0.00 | 0.00 | 73 | 1040.4 |
| 20260504022817 | 9 | 252 | 3.2 | 4.8 | 0.00 | 0.00 | 0.00 | 73 | 1040.4 |
| 20260504022314 | 9 | 270 | 3.2 | 4.8 | 0.00 | 0.00 | 0.00 | 72 | 1040.4 |
| 20260504021810 | 9 | 265 | 3.2 | 4.8 | 0.00 | 0.00 | 0.00 | 71 | 1040.5 |
| 20260504021308 | 10 | 264 | 1.6 | 3.2 | 0.00 | 0.00 | 0.00 | 66 | 1040.4 |
| 20260504020805 | 10 | 257 | 1.6 | 3.2 | 0.00 | 0.00 | 0.00 | 65 | 1040.6 |
| 20260504020301 | 10 | 263 | 4.8 | 6.4 | 0.00 | 0.00 | 0.00 | 63 | 1040.5 |
| 20260504015757 | 11 | 286 | 1.6 | 3.2 | 0.00 | 0.00 | 0.00 | 64 | 1040.5 |
| 20260504015254 | 11 | 279 | 3.2 | 6.4 | 0.00 | 0.00 | 0.00 | 57 | 1040.5 |
| 20260504014750 | 11 | 260 | 6.4 | 6.4 | 0.00 | 0.00 | 0.00 | 60 | 1040.5 |
| 20260504014246 | 11 | 259 | 3.2 | 4.8 | 0.00 | 0.00 | 0.00 | 61 | 1040.4 |
| 20260504013744 | 11 | 239 | 4.8 | 4.8 | 0.00 | 0.00 | 0.00 | 54 | 1040.7 |
| 20260504013242 | 11 | 278 | 1.6 | 8.0 | 0.00 | 0.00 | 0.00 | 52 | 1040.7 |
| 20260504012738 | 11 | 236 | 4.8 | 9.7 | 0.00 | 0.00 | 0.00 | 50 | 1040.9 |
| 20260504012236 | 11 | 265 | 4.8 | 11.3 | 0.00 | 0.00 | 0.00 | 50 | 1040.9 |
| 20260504011732 | 11 | 248 | 3.2 | 8.0 | 0.00 | 0.00 | 0.00 | 54 | 1040.9 |
| 20260504011229 | 12 | 270 | 1.6 | 4.8 | 0.00 | 0.00 | 0.00 | 51 | 1040.7 |
| 20260504010725 | 12 | 254 | 9.7 | 14.5 | 0.00 | 0.00 | 0.00 | 49 | 1040.8 |
| 20260504010220 | 11 | 286 | 3.2 | 9.7 | 0.00 | 0.00 | 0.00 | 56 | 1040.8 |
| 20260504005717 | 11 | 231 | 3.2 | 8.0 | 0.00 | 0.00 | 0.00 | 53 | 1040.3 |
| 20260504005215 | 12 | 275 | 0.0 | 4.8 | 0.00 | 0.00 | 0.00 | 57 | 1040.3 |
| 20260504004712 | 12 | 246 | 8.0 | 9.7 | 0.00 | 0.00 | 0.00 | 49 | 1040.3 |
| 20260504004209 | 12 | 270 | 4.8 | 6.4 | 0.00 | 0.00 | 0.00 | 52 | 1040.2 |
| 20260504003706 | 12 | 270 | 1.6 | 9.7 | 0.00 | 0.00 | 0.00 | 51 | 1040.4 |
| 20260504003203 | 12 | 231 | 4.8 | 12.9 | 0.00 | 0.00 | 0.00 | 48 | 1040.4 |
| 20260504002659 | 11 | 255 | 0.0 | 6.4 | 0.00 | 0.00 | 0.00 | 58 | 1040.3 |
| 20260504002156 | 12 | 285 | 3.2 | 4.8 | 0.00 | 0.00 | 0.00 | 51 | 1040.2 |
| 20260504001654 | 12 | 343 | 3.2 | 9.7 | 0.00 | 0.00 | 0.00 | 50 | 1040.5 |
| 20260504001150 | 12 | 342 | 1.6 | 14.5 | 0.00 | 0.00 | 0.00 | 50 | 1040.0 |
| 20260504000647 | 11 | 297 | 4.8 | 8.0 | 0.00 | 0.00 | 0.00 | 58 | 1040.3 |
| 20260504000145 | 12 | 246 | 4.8 | 6.4 | 0.00 | 0.00 | 0.00 | 50 | 1040.3 |
| 20260503235643 | 12 | 251 | 4.8 | 4.8 | 0.00 | 0.00 | 0.00 | 51 | 1040.0 |
| 20260503235139 | 12 | 210 | 3.2 | 8.0 | 0.00 | 0.00 | 0.00 | 54 | 1040.3 |
| 20260503234637 | 12 | 254 | 8.0 | 8.0 | 0.00 | 0.00 | 0.00 | 50 | 1040.2 |
| 20260503234135 | 12 | 290 | 3.2 | 8.0 | 0.00 | 0.00 | 0.00 | 50 | 1040.1 |
| 20260503233632 | 12 | 227 | 12.9 | 12.9 | 0.00 | 0.00 | 0.00 | 49 | 1040.1 |
| 20260503233127 | 12 | 270 | 1.6 | 8.0 | 0.00 | 0.00 | 0.00 | 49 | 1039.9 |
| 20260503232624 | 12 | 309 | 4.8 | 14.5 | 0.00 | 0.00 | 0.00 | 51 | 1039.9 |
| 20260503232122 | 12 | 306 | 6.4 | 12.9 | 0.00 | 0.00 | 0.00 | 51 | 1040.0 |
| 20260503231620 | 12 | 267 | 6.4 | 11.3 | 0.00 | 0.00 | 0.00 | 50 | 1039.6 |
| 20260503231116 | 12 | 259 | 4.8 | 6.4 | 0.00 | 0.00 | 0.00 | 56 | 1039.2 |
| 20260503230613 | 12 | 287 | 4.8 | 4.8 | 0.00 | 0.00 | 0.00 | 55 | 1039.4 |
| 20260503230110 | 12 | 243 | 4.8 | 6.4 | 0.00 | 0.00 | 0.00 | 49 | 1039.4 |
| 20260503225608 | 12 | 279 | 3.2 | 6.4 | 0.00 | 0.00 | 0.00 | 50 | 1039.4 |
| 20260503225102 | 13 | 270 | 3.2 | 4.8 | 0.00 | 0.00 | 0.00 | 47 | 1039.2 |
| 20260503224600 | 13 | 267 | 4.8 | 9.7 | 0.00 | 0.00 | 0.00 | 47 | 1039.2 |
| 20260503224058 | 13 | 274 | 4.8 | 8.0 | 0.00 | 0.00 | 0.00 | 45 | 1039.6 |
| 20260503223556 | 13 | 300 | 4.8 | 4.8 | 0.00 | 0.00 | 0.00 | 46 | 1039.4 |
| 20260503223050 | 14 | 263 | 6.4 | 8.0 | 0.00 | 0.00 | 0.00 | 43 | 1039.4 |
| 20260503222549 | 14 | 286 | 3.2 | 4.8 | 0.00 | 0.00 | 0.00 | 46 | 1039.3 |
| 20260503222047 | 14 | 294 | 4.8 | 6.4 | 0.00 | 0.00 | 0.00 | 48 | 1039.6 |
| 20260503221545 | 14 | 265 | 3.2 | 6.4 | 0.00 | 0.00 | 0.00 | 48 | 1039.3 |
| 20260503221042 | 13 | 281 | 4.8 | 8.0 | 0.00 | 0.00 | 0.00 | 49 | 1039.8 |
| 20260503220538 | 13 | 259 | 4.8 | 9.7 | 0.00 | 0.00 | 0.00 | 45 | 1039.5 |
| 20260503220035 | 13 | 266 | 4.8 | 8.0 | 0.00 | 0.00 | 0.00 | 48 | 1039.5 |
| 20260503215532 | 13 | 275 | 3.2 | 4.8 | 0.00 | 0.00 | 0.00 | 46 | 1039.6 |